Location: Bli��� Lhota
(48.7570°N, 14.0120°E)
Time: 04:28:02
(UTC+00:00)

COSMOS 2406 - Pass Details

Date: 18 September 2020
Orbit: 844 x 863 km, 71.0° (Epoch: 29 October)

Event Time Altitude Azimuth Distance (km) Brightness Sun altitude
Rises 19:03:06 0° 335° (NNW) 3,415 7.2 -18.9°
Reaches altitude 10° 19:05:49 10° 345° (NNW) 2,476 6.2 -19.3°
Maximum altitude 19:10:54 33° 49° (NE) 1,402 4.1 -20.0°
Enters shadow 19:12:16 29° 75° (ENE) 1,505 4.1 -20.2°
